Wind_Speed
8 8 7 7 7 7 7 6 6 6 7 7 8 9 9 9 10 11 12 12 12 13 13 13 13 13 13 13 13 13 13 13 13 13 14 14 15 16 17 18 19 19 20
9 8 8 8 8 8 7 7 7 8 8 9 9 10 10 11 12 12 13 13 14 14 15 15 15 15 15 15 15 15 15 16 16 16 16 17 17 18 18 19 20 21 21
10 9 9 9 8 8 8 8 9 9 9 10 11 11 12 13 13 14 14 15 16 17 17 17 17 17 17 17 17 17 17 18 19 19 19 19 20 20 21 21 22 23 24
10 10 10 9 9 9 9 9 10 10 11 11 13 13 14 14 15 15 16 17 18 18 18 18 19 19 19 19 19 19 20 21 21 21 21 22 22 23 23 23 24 25 25
10 10 10 10 10 11 11 11 11 12 12 13 14 15 16 16 17 17 18 19 19 19 20 20 20 21 21 21 22 22 23 23 23 24 24 24 24 25 25 25 26 26 27
10 11 12 12 12 12 12 12 13 14 14 15 16 17 18 18 18 19 20 20 21 21 21 22 22 23 23 24 24 24 25 25 25 26 26 27 27 27 27 28 28 29 29
11 11 11 12 13 13 13 14 14 15 16 17 18 19 20 20 20 21 21 22 23 23 23 24 24 25 26 26 27 27 27 28 28 29 29 29 29 29 30 30 31 31 32
11 12 12 13 13 14 14 15 16 17 18 19 20 20 21 21 21 22 23 24 25 25 26 26 27 27 28 28 29 30 30 30 30 30 31 31 32 32 32 33 33 34 35
12 13 13 14 14 15 15 16 17 18 19 21 21 22 23 22 23 24 25 25 26 27 28 29 29 30 30 31 32 32 32 33 33 33 33 33 34 34 35 35 36 37 37
13 14 14 14 15 16 16 17 18 19 20 21 22 23 23 24 25 26 26 27 28 29 30 31 32 33 33 33 34 34 34 35 35 36 36 37 37 38 39 39 40 40 41
15 15 15 15 16 16 17 18 20 21 22 22 23 24 24 26 27 28 29 30 31 32 33 34 34 35 35 36 36 36 36 37 37 38 39 40 40 41 42 43 43 44 45
16 16 17 17 18 18 19 20 21 22 23 24 25 26 27 28 30 31 32 33 34 35 36 36 37 37 38 38 39 39 40 40 41 41 42 42 43 44 44 45 46 46 47
17 18 19 19 20 21 21 22 23 24 25 26 28 29 30 32 33 34 34 36 37 38 38 39 40 40 41 41 42 42 43 43 43 43 44 45 46 47 47 48 49 49 49
19 20 20 21 21 22 23 25 26 27 29 30 31 32 34 34 35 36 37 39 40 41 41 42 42 43 44 44 45 45 45 45 45 46 47 48 49 50 51 51 51 51 52
19 20 21 22 23 25 26 28 29 31 32 33 34 36 36 37 38 39 40 41 42 43 43 44 45 45 46 46 46 46 47 47 48 49 49 50 51 52 53 54 54 55 55
21 23 24 25 26 28 30 31 32 33 34 36 37 38 38 39 40 41 42 43 43 44 45 45 46 46 47 47 48 48 49 49 50 51 51 52 53 54 54 55 56 56 56
24 25 26 27 29 31 32 34 35 36 36 37 39 39 40 41 42 43 44 45 45 46 47 47 48 48 49 49 50 50 50 51 52 53 54 55 56 56 56 56 56 56 56
27 28 29 31 32 34 35 36 37 38 38 39 40 41 42 43 44 45 46 47 47 48 49 49 49 50 50 51 52 52 52 53 53 54 55 56 57 57 57 57 56 55 55
30 31 32 34 35 36 37 37 38 39 40 41 41 42 43 44 45 46 47 48 49 49 50 50 50 51 51 52 52 53 54 54 55 55 56 56 57 57 56 56 55 55 54
32 34 35 36 37 37 38 38 39 40 41 42 43 43 44 45 46 47 48 49 49 50 50 51 52 52 52 52 52 53 54 54 55 55 55 55 55 55 54 54 54 53 52
34 35 36 37 38 38 39 40 41 41 42 43 43 44 45 46 47 48 48 49 50 50 51 52 52 52 52 52 52 52 53 53 54 54 54 53 53 52 51 50 50 49 49
36 37 37 38 39 39 40 41 42 42 43 43 44 45 46 47 48 48 49 49 50 51 51 52 51 51 52 52 52 52 52 53 53 52 52 51 50 49 48 48 48 48 47
37 38 38 39 39 40 41 41 42 43 44 45 46 46 47 48 48 49 50 50 51 52 52 51 51 51 51 51 52 52 53 53 52 52 51 49 48 47 46 46 46 46 45
38 39 39 40 40 41 41 42 43 44 46 46 47 47 48 48 49 50 51 51 51 51 50 50 50 50 50 50 51 51 52 52 51 51 50 48 47 46 46 45 45 44 44
40 40 40 41 42 42 43 43 45 46 47 47 47 48 48 49 49 50 51 51 51 50 49 49 49 50 50 50 50 50 51 51 50 49 48 47 46 45 45 44 43 42 42
41 41 42 42 43 44 44 45 46 47 47 47 47 48 48 49 49 50 50 50 50 49 49 49 49 50 50 50 50 50 50 50 49 48 47 46 45 44 43 43 42 41 40
Wind_Direction
239 241 249 258 266 268 271 275 282 289 297 304 308 312 315 319 322 325 326 324 321 320 319 317 314 310 306 302 300 299 299 298 295 292 288 283 280 275 271 270 267 266 265
244 247 252 256 260 264 269 275 283 287 292 297 301 305 308 312 314 317 318 318 317 316 315 313 311 309 305 301 298 296 294 294 292 289 288 285 283 280 278 274 271 269 268
249 250 254 258 260 263 268 276 282 285 290 294 298 302 305 307 309 311 313 313 314 313 312 309 307 305 302 300 298 295 292 291 291 289 287 285 283 282 280 277 273 270 269
249 251 257 260 260 263 270 276 279 283 287 292 296 300 303 305 306 308 309 311 312 313 311 308 305 303 301 298 296 294 293 291 290 289 287 285 283 282 280 278 275 273 271
250 253 258 260 262 267 272 275 277 280 285 291 295 298 301 302 304 306 308 309 309 308 307 306 303 301 300 298 296 294 292 291 290 288 287 286 284 282 279 278 276 275 274
254 257 259 261 265 270 274 277 278 280 284 290 295 297 299 301 302 304 305 305 305 305 304 303 302 301 300 299 297 295 294 292 291 289 288 285 283 281 280 278 277 276 275
258 263 266 268 269 271 276 279 281 282 286 291 294 296 298 299 300 301 303 304 304 303 302 302 302 301 300 299 297 296 294 293 291 289 287 285 283 281 280 279 277 276 275
262 268 271 272 271 272 277 280 284 286 289 291 294 295 296 297 299 300 301 302 302 302 302 301 301 300 299 298 298 296 294 292 291 289 288 286 284 283 282 281 279 277 276
265 271 274 272 272 275 279 283 286 288 290 293 295 295 297 297 299 300 300 300 301 301 302 302 301 300 299 298 297 296 294 292 291 291 289 288 286 285 284 283 282 281 279
267 271 274 274 275 278 282 286 289 292 294 295 296 297 297 299 300 299 299 299 299 300 300 301 301 300 299 298 297 295 294 293 291 290 289 288 287 286 285 285 284 284 283
267 272 275 278 279 281 285 289 292 293 295 296 297 298 299 300 300 300 299 300 300 300 300 300 300 299 299 298 297 295 293 292 291 290 289 288 288 288 287 286 286 286 285
270 275 278 280 282 283 287 290 292 294 295 296 298 299 299 300 300 300 300 300 300 300 300 300 299 298 298 297 296 294 293 292 291 290 289 289 288 289 289 288 287 286 287
273 277 279 281 283 286 290 292 293 294 295 296 298 299 299 299 300 300 300 300 299 299 299 298 298 297 297 297 296 294 293 292 291 291 290 290 289 289 289 288 287 286 287
275 278 280 282 284 286 290 292 294 295 296 297 298 298 299 298 299 299 299 299 298 298 298 297 297 297 296 296 295 294 293 292 292 291 290 290 290 290 289 289 288 287 286
276 279 281 284 286 289 292 293 295 296 297 298 299 299 299 298 298 298 298 299 299 298 298 297 297 297 296 296 295 294 293 292 292 291 291 291 291 291 290 289 289 287 286
278 281 283 285 288 291 293 294 295 297 298 298 298 298 298 298 298 299 300 300 299 299 298 298 298 298 297 297 296 295 294 294 293 293 293 293 292 292 291 290 289 288 286
281 283 285 289 291 293 294 295 296 297 297 297 297 297 298 298 299 299 300 299 299 299 299 299 298 298 298 297 297 296 296 295 295 295 295 294 293 292 291 290 290 288 286
283 285 287 290 292 293 294 295 296 297 297 298 298 298 299 299 299 299 300 300 299 299 299 299 299 299 298 298 297 297 297 297 296 296 295 295 294 292 291 290 290 288 287
284 286 288 290 292 293 294 295 296 297 297 298 298 299 299 300 300 300 300 300 300 300 300 300 300 299 299 299 299 298 298 297 297 296 296 295 294 293 291 290 289 288 286
286 288 289 291 292 293 294 296 296 297 297 298 299 299 299 300 300 301 301 301 301 301 301 301 301 300 300 300 300 299 299 299 298 297 296 295 295 293 292 291 290 288 286
287 289 291 292 292 294 295 296 297 298 298 299 299 299 300 300 301 301 301 301 301 301 301 301 302 301 300 300 300 301 301 300 300 299 298 296 295 294 293 291 290 288 287
288 290 291 292 293 294 295 296 297 298 299 299 299 300 300 301 302 302 302 302 302 302 303 302 302 302 301 301 301 301 302 302 301 301 299 298 296 295 294 293 292 290 289
287 289 290 292 293 294 295 296 297 298 298 299 300 301 301 302 302 303 303 303 303 303 303 303 303 303 302 302 302 302 302 302 302 301 300 299 297 296 295 294 293 292 290
287 288 290 292 293 294 295 296 296 297 299 300 300 301 302 302 303 303 303 303 304 304 304 304 303 304 304 303 303 303 303 303 303 302 300 299 298 297 295 295 294 293 292
287 289 291 292 294 295 295 296 297 298 299 300 301 301 302 303 303 304 304 304 304 304 304 304 304 304 304 304 304 304 304 304 303 303 301 300 299 298 297 296 296 294 293
287 289 291 292 294 295 296 297 298 299 299 300 301 302 303 303 304 304 304 304 304 304 305 305 305 305 304 304 304 304 304 304 303 302 301 301 299 298 298 297 297 296 294
Height
5868 5869 5869 5869 5869 5869 5869 5868 5868 5868 5867 5866 5865 5864 5863 5862 5860 5859 5857 5856 5854 5852 5851 5849 5847 5846 5844 5843 5841 5840 5839 5838 5837 5836 5834 5834 5833 5832 5831 5830 5830 5830 5830
5866 5866 5866 5866 5866 5866 5866 5866 5866 5865 5865 5864 5863 5862 5861 5860 5858 5856 5855 5853 5852 5850 5848 5846 5844 5843 5841 5839 5838 5836 5835 5834 5833 5831 5830 5829 5828 5827 5826 5825 5824 5824 5824
5863 5863 5864 5864 5863 5863 5864 5863 5863 5863 5862 5861 5861 5859 5858 5857 5855 5854 5852 5850 5849 5847 5845 5843 5841 5839 5837 5835 5834 5832 5831 5829 5828 5826 5825 5824 5822 5821 5820 5819 5818 5817 5817
5860 5860 5861 5861 5861 5861 5860 5860 5860 5860 5859 5858 5858 5856 5855 5854 5852 5850 5849 5847 5845 5843 5840 5838 5836 5834 5832 5830 5829 5827 5825 5824 5822 5820 5819 5818 5816 5814 5813 5812 5811 5810 5809
5857 5857 5857 5857 5857 5857 5857 5857 5856 5856 5856 5855 5854 5853 5851 5850 5848 5846 5845 5843 5840 5838 5836 5834 5831 5829 5827 5825 5823 5821 5819 5817 5815 5814 5812 5810 5809 5807 5805 5804 5803 5801 5801
5854 5854 5854 5854 5853 5853 5853 5853 5852 5852 5851 5851 5850 5848 5847 5845 5843 5842 5840 5838 5835 5833 5831 5828 5826 5823 5821 5819 5816 5814 5812 5809 5807 5806 5804 5802 5800 5798 5797 5795 5794 5793 5792
5850 5850 5849 5849 5849 5849 5849 5849 5848 5848 5847 5846 5845 5843 5842 5840 5838 5836 5834 5832 5829 5827 5825 5822 5820 5817 5814 5812 5809 5807 5804 5801 5799 5797 5795 5793 5791 5790 5788 5787 5785 5784 5783
5847 5846 5846 5845 5845 5845 5845 5844 5844 5843 5842 5841 5839 5838 5836 5834 5832 5830 5828 5826 5823 5821 5818 5816 5813 5810 5807 5804 5802 5799 5796 5793 5790 5788 5785 5783 5781 5779 5778 5776 5774 5773 5772
5843 5843 5842 5841 5841 5841 5840 5840 5839 5838 5837 5836 5834 5832 5830 5828 5826 5824 5821 5819 5816 5813 5811 5808 5805 5802 5799 5796 5793 5790 5787 5784 5781 5778 5775 5773 5770 5768 5766 5765 5763 5761 5760
5840 5839 5838 5838 5837 5836 5836 5835 5834 5833 5831 5830 5828 5826 5823 5821 5819 5817 5814 5812 5809 5806 5803 5800 5796 5793 5789 5786 5783 5780 5777 5774 5771 5768 5765 5762 5759 5757 5754 5752 5750 5748 5746
5836 5835 5834 5834 5833 5832 5831 5830 5829 5827 5826 5824 5821 5819 5817 5814 5812 5809 5807 5804 5801 5798 5794 5791 5787 5784 5780 5776 5773 5769 5766 5763 5760 5757 5754 5751 5748 5745 5741 5738 5736 5733 5731
5831 5831 5830 5829 5828 5827 5826 5825 5823 5821 5819 5817 5815 5813 5810 5807 5804 5801 5798 5795 5791 5788 5785 5781 5777 5773 5770 5766 5762 5758 5754 5751 5748 5745 5742 5739 5735 5732 5728 5725 5721 5718 5715
5826 5826 5825 5824 5823 5821 5820 5819 5817 5815 5812 5810 5808 5805 5802 5799 5796 5792 5789 5785 5781 5778 5774 5770 5766 5762 5758 5754 5750 5746 5742 5738 5735 5732 5728 5725 5721 5718 5714 5710 5706 5703 5699
5821 5820 5819 5818 5817 5816 5814 5812 5810 5807 5805 5802 5799 5796 5793 5790 5786 5782 5779 5775 5771 5767 5763 5758 5754 5749 5745 5741 5736 5732 5728 5724 5721 5717 5714 5710 5706 5702 5698 5694 5690 5687 5683
5815 5814 5813 5812 5811 5809 5807 5804 5802 5799 5796 5793 5790 5787 5783 5780 5776 5772 5768 5764 5759 5755 5750 5746 5741 5737 5732 5728 5723 5718 5714 5710 5706 5702 5698 5694 5690 5686 5681 5677 5672 5668 5665
5809 5808 5807 5805 5803 5801 5799 5796 5793 5790 5786 5783 5779 5776 5772 5768 5764 5760 5756 5751 5746 5742 5737 5733 5728 5723 5719 5714 5709 5705 5700 5695 5691 5686 5682 5677 5673 5668 5664 5659 5654 5650 5646
5802 5800 5799 5797 5795 5793 5790 5787 5784 5781 5777 5773 5769 5765 5761 5757 5753 5748 5744 5739 5734 5729 5724 5719 5714 5710 5705 5700 5695 5690 5685 5680 5675 5670 5665 5660 5655 5650 5645 5640 5635 5631 5627
5794 5792 5790 5788 5786 5783 5780 5777 5774 5770 5766 5762 5758 5753 5749 5745 5740 5736 5731 5726 5721 5716 5710 5705 5700 5695 5690 5685 5680 5674 5669 5664 5659 5653 5648 5642 5637 5632 5627 5622 5617 5612 5608
5785 5783 5781 5779 5776 5773 5769 5766 5762 5758 5755 5751 5746 5742 5737 5733 5728 5723 5717 5712 5707 5702 5696 5691 5686 5680 5675 5670 5664 5659 5653 5648 5642 5636 5631 5625 5619 5613 5608 5603 5599 5594 5590
5776 5773 5771 5768 5765 5762 5758 5755 5751 5747 5743 5739 5734 5730 5725 5720 5715 5710 5704 5699 5693 5688 5682 5677 5671 5665 5660 5654 5648 5643 5637 5631 5625 5619 5613 5607 5601 5596 5591 5586 5581 5577 5573
5765 5763 5760 5757 5754 5750 5747 5743 5739 5735 5731 5727 5722 5717 5712 5707 5702 5697 5691 5685 5679 5674 5668 5662 5656 5650 5644 5638 5633 5627 5621 5615 5609 5603 5597 5591 5585 5580 5574 5569 5564 5560 5556
5755 5752 5749 5746 5742 5739 5735 5731 5727 5723 5719 5714 5710 5705 5699 5694 5689 5683 5677 5671 5665 5659 5653 5647 5641 5635 5629 5623 5617 5612 5606 5600 5593 5587 5581 5575 5570 5564 5559 5554 5550 5545 5541
5743 5741 5737 5734 5731 5727 5723 5719 5715 5711 5706 5702 5697 5692 5686 5681 5675 5669 5663 5657 5651 5645 5639 5633 5627 5621 5614 5608 5602 5596 5590 5584 5578 5572 5566 5560 5555 5550 5545 5540 5536 5531 5527
5731 5729 5726 5722 5719 5715 5711 5707 5703 5698 5694 5689 5684 5678 5673 5667 5661 5655 5649 5643 5637 5631 5625 5618 5612 5606 5600 5594 5588 5581 5575 5569 5563 5557 5551 5545 5540 5536 5531 5527 5522 5518 5514
5719 5717 5714 5710 5707 5703 5699 5695 5690 5686 5681 5676 5670 5665 5659 5653 5648 5642 5636 5629 5623 5617 5611 5605 5598 5592 5586 5580 5574 5567 5561 5555 5548 5542 5536 5531 5527 5522 5517 5513 5509 5504 5501
5707 5704 5701 5698 5694 5690 5686 5682 5677 5672 5667 5662 5657 5652 5646 5640 5634 5628 5622 5616 5610 5604 5598 5591 5585 5579 5572 5566 5560 5553 5547 5541 5535 5528 5523 5518 5513 5508 5504 5500 5496 5492 5488